Original File Name :,,c:\Mainstream\Data\S1385kashibaF\No1\Mainstream_AV-flowmeter_P4812_210826_091805.CSV,,,,,,,,,,
,,,,,,,,,,,,
Project Name :,,sample,,,,,,,,,,
Site Name :,,No1,,,,,,,,,,
Site Location :,,900,,,,,,,,,,
Comments :,,4812,,,,,,,,,,
,,,,,,,,,,,,
Product Type:  :,,AV-flowmeter,,,,,,,,,,
Product ID :,,Mainstream P4812,,,,,,,,,,
,,,,,,,,,,,,
Level Sensor ID :,,PTX  4273574,,,,,,,,,,
Velocity Sensor ID :,,V-Probe 10881,,,,,,,,,,
,,,,,,,,,,,,
Installation :,,Circular Pipe (Part-Filled),,,,,,,,,,
Diameter :,,900 mm,,,,,,,,,,
Silt Level :,,0 mm,,,,,,,,,,
,,,,,,,,,,,,
Date,Time,Backup Battery Voltage,Internal Battery Voltage,Level Sensor Loop Current,Liquid Level,Flow Cross-sectional Area,Ultrasound Signal Quality,Flow Velocity,Flow Rate,Forward Flow Hour Quantity,Flow Hour Quantity,Flow Total Quantity
yy/mm/dd,hh:mm:ss,      V,      V,      mA,      mm,      m2,      %,      mm/s,      l/s,      l,      l,      l
2021/8/26,9:28:00,3.68,12.63,4.44,50,0.0141,15.1,114,1,97,97,1571598080
2021/8/26,9:29:00,3.68,12.63,4.906,109,0.0439,42.7,484,21,1372,1372,1571598080
2021/8/26,9:30:00,3.67,12.63,4.821,98,0.0379,44.8,526,20,2570,2570,1571598080
2021/8/26,9:31:00,3.68,12.63,4.959,115,0.0478,50.5,513,24,4043,4043,1571598080
2021/8/26,9:32:00,3.67,12.63,5.033,124,0.0533,80,479,25,5577,5577,1571598080
2021/8/26,9:33:00,3.68,12.63,4.87,104,0.0413,62.9,510,21,6843,6843,1571598080
2021/8/26,9:34:00,3.67,12.63,5.022,123,0.0525,74.6,434,22,8212,8212,1571598080
2021/8/26,9:35:00,3.67,12.63,5.043,126,0.0541,55.3,447,24,9663,9663,1571598080
2021/8/26,9:36:00,3.67,12.63,4.982,118,0.0495,67.8,447,22,10993,10993,1571598080
2021/8/26,9:37:00,3.68,12.63,4.948,114,0.047,57.1,452,21,12269,12269,1571598080
2021/8/26,9:38:00,3.67,12.63,4.858,103,0.0405,53,491,19,13463,13463,1571598080
2021/8/26,9:39:00,3.67,12.63,4.984,118,0.0497,48.6,441,21,14779,14779,1571598080
2021/8/26,9:40:00,3.67,12.63,4.979,118,0.0493,49.9,454,22,16123,16123,1571598080
2021/8/26,9:41:00,3.67,12.63,5.023,123,0.0526,59.1,421,22,17453,17453,1571598080
2021/8/26,9:42:00,3.67,12.63,4.966,116,0.0483,49.5,559,27,19076,19076,1571598080
2021/8/26,9:43:00,3.67,12.63,4.798,95,0.0363,62.5,717,26,20638,20638,1571598080
2021/8/26,9:44:00,3.67,12.63,4.603,71,0.0233,30.2,786,18,21741,21741,1571598080
2021/8/26,9:45:00,3.67,12.63,4.849,102,0.0399,46.9,614,24,23212,23212,1571598080
2021/8/26,9:46:00,3.67,12.63,4.982,118,0.0495,44.8,584,29,24949,24949,1571598080
2021/8/26,9:47:00,3.67,12.63,4.607,71,0.0236,38.9,597,14,25795,25795,1571598080
2021/8/26,9:48:00,3.67,12.63,4.876,105,0.0417,49.4,444,18,26908,26908,1571598080
2021/8/26,9:49:00,3.67,12.63,4.948,114,0.047,58.6,465,21,28221,28221,1571598080
2021/8/26,9:50:00,3.67,12.63,4.63,74,0.0251,29.6,507,12,28985,28985,1571598080
2021/8/26,9:51:00,3.67,12.63,4.867,104,0.0411,45.7,550,22,30343,30343,1571598080
2021/8/26,9:52:00,3.67,12.63,4.533,62,0.0193,35.4,851,16,31330,31330,1571598080
2021/8/26,9:53:00,3.67,12.63,4.691,82,0.029,50.7,599,17,32375,32375,1571598080
2021/8/26,9:54:00,3.67,12.63,4.803,96,0.0366,71.6,480,17,33431,33431,1571598080
2021/8/26,9:55:00,3.67,12.63,4.639,75,0.0256,31.8,724,18,34547,34547,1571598080
2021/8/26,9:56:00,3.67,12.63,4.891,107,0.0428,29.1,304,13,35328,35328,1571598080
2021/8/26,9:57:00,3.67,12.63,4.861,103,0.0407,56.1,487,19,36519,36519,1571598080
2021/8/26,9:58:00,3.67,12.63,4.932,112,0.0458,50.1,423,19,37682,37682,1571598080
2021/8/26,9:59:00,3.67,12.63,4.993,119,0.0503,64.9,360,18,38771,38771,1571598080
2021/8/26,10:00:00,3.67,12.63,5.053,127,0.0549,76,332,18,39865,0,1571637888
2021/8/26,10:01:00,3.67,12.63,4.918,110,0.0448,41.7,434,19,41032,1166,1571637888
2021/8/26,10:02:00,3.67,12.63,4.844,101,0.0395,36.6,463,18,42131,2266,1571637888
2021/8/26,10:03:00,3.67,12.63,4.753,90,0.0331,48.5,630,20,43383,3517,1571637888
2021/8/26,10:04:00,3.67,12.63,4.532,62,0.0192,19.1,766,14,44269,4403,1571637888
2021/8/26,10:05:00,3.67,12.63,4.662,78,0.0271,24,584,15,45221,5356,1571637888
2021/8/26,10:06:00,3.67,12.63,4.865,104,0.041,48,617,25,46740,6874,1571637888
2021/8/26,10:07:00,3.67,12.63,4.925,111,0.0453,43.9,498,22,48094,8229,1571637888
2021/8/26,10:08:00,3.67,12.63,4.753,90,0.0331,41.2,586,19,49258,9393,1571637888
2021/8/26,10:09:00,3.67,12.63,4.659,78,0.0269,21.6,533,14,50121,10256,1571637888
2021/8/26,10:10:00,3.67,12.63,4.72,85,0.0309,33.4,512,15,51073,11207,1571637888
2021/8/26,10:11:00,3.67,12.63,4.808,97,0.037,33.5,437,16,52043,12178,1571637888
2021/8/26,10:12:00,3.67,12.62,4.588,69,0.0225,19.2,640,14,52908,13043,1571637888
2021/8/26,10:13:00,3.67,12.63,4.631,74,0.0251,17.1,711,17,53982,14117,1571637888
2021/8/26,10:14:00,3.67,12.63,4.618,72,0.0243,23.3,805,19,55157,15291,1571637888
2021/8/26,10:15:00,3.67,12.63,4.6,70,0.0232,23.3,738,17,56185,16319,1571637888
2021/8/26,10:16:00,3.67,12.62,4.646,76,0.0261,38.6,787,20,57419,17554,1571637888
2021/8/26,10:17:00,3.67,12.62,4.638,75,0.0256,32.8,871,22,58758,18893,1571637888
2021/8/26,10:18:00,3.67,12.62,4.609,71,0.0237,26.8,823,19,59931,20065,1571637888
2021/8/26,10:19:00,3.67,12.62,4.528,61,0.019,19,783,14,60826,20960,1571637888
2021/8/26,10:20:00,3.67,12.62,4.487,56,0.0166,23.1,815,13,61640,21775,1571637888
2021/8/26,10:21:00,3.67,12.63,4.508,59,0.0178,18.5,710,12,62402,22537,1571637888
2021/8/26,10:22:00,3.67,12.62,4.471,54,0.0157,23.4,676,10,63041,23175,1571637888
2021/8/26,10:23:00,3.67,12.63,4.472,54,0.0157,13.9,812,12,63810,23945,1571637888
2021/8/26,10:24:00,3.67,12.63,4.472,54,0.0157,9.3,812,12,64579,24714,1571637888
2021/8/26,10:25:00,3.67,12.62,4.471,54,0.0157,15.7,744,11,65282,25416,1571637888
2021/8/26,10:26:00,3.67,12.62,4.471,54,0.0157,19.5,650,10,65896,26030,1571637888
2021/8/26,10:27:00,3.67,12.62,4.439,50,0.0141,11.8,617,8,66419,26553,1571637888
2021/8/26,10:28:00,3.67,12.62,4.431,49,0.0136,18,707,9,66997,27132,1571637888
2021/8/26,10:29:00,3.67,12.62,4.444,50,0.0143,13.1,712,10,67611,27746,1571637888
2021/8/26,10:30:00,3.67,12.62,4.449,51,0.0146,17.7,714,10,68238,28373,1571637888
2021/8/26,10:31:00,3.67,12.62,4.446,51,0.0144,15,882,12,69004,29139,1571637888
2021/8/26,10:32:00,3.67,12.63,4.691,82,0.029,22.5,547,15,69958,30093,1571637888
2021/8/26,10:33:00,3.67,12.62,4.795,95,0.0361,34.4,474,17,70985,31119,1571637888
2021/8/26,10:34:00,3.67,12.63,4.865,104,0.041,43,370,15,71896,32030,1571637888
2021/8/26,10:35:00,3.67,12.62,4.739,88,0.0321,46.6,441,14,72748,32882,1571637888
2021/8/26,10:36:00,3.67,12.62,4.752,89,0.033,28.3,400,13,73541,33675,1571637888
2021/8/26,10:37:00,3.67,12.62,4.864,103,0.0409,54.4,364,14,74435,34570,1571637888
2021/8/26,10:38:00,3.67,12.62,4.843,101,0.0394,52.3,385,15,75348,35482,1571637888
2021/8/26,10:39:00,3.67,12.63,4.809,97,0.037,39.1,427,15,76298,36433,1571637888
2021/8/26,10:40:00,3.67,12.63,4.754,90,0.0331,36.1,429,14,77152,37287,1571637888
2021/8/26,10:41:00,3.67,12.62,4.735,87,0.0319,24.6,442,14,77999,38134,1571637888
2021/8/26,10:42:00,3.67,12.62,4.736,87,0.032,46.5,447,14,78857,38992,1571637888
2021/8/26,10:43:00,3.67,12.62,4.75,89,0.0329,39.7,451,14,79748,39883,1571637888
2021/8/26,10:44:00,3.67,12.63,4.713,84,0.0305,35.5,395,12,80471,40606,1571637888
2021/8/26,10:45:00,3.67,12.62,4.692,82,0.0291,29.9,416,12,81198,41333,1571637888
2021/8/26,10:46:00,3.67,12.62,4.684,81,0.0286,32,518,14,82088,42222,1571637888
2021/8/26,10:47:00,3.67,12.62,4.679,80,0.0282,26.7,429,12,82816,42951,1571637888
2021/8/26,10:48:00,3.67,12.62,4.676,80,0.028,16.9,384,10,83463,43598,1571637888
2021/8/26,10:49:00,3.67,12.63,4.674,80,0.0279,28.4,452,12,84222,44356,1571637888
2021/8/26,10:50:00,3.67,12.63,4.673,79,0.0279,28.9,421,11,84927,45061,1571637888
2021/8/26,10:51:00,3.67,12.63,4.651,77,0.0264,37.2,400,10,85562,45696,1571637888
2021/8/26,10:52:00,3.67,12.63,4.65,77,0.0264,38.5,343,9,86105,46240,1571637888
2021/8/26,10:53:00,3.67,12.63,4.67,79,0.0277,34.2,472,13,86890,47024,1571637888
2021/8/26,10:54:00,3.67,12.63,4.734,87,0.0318,27.7,444,14,87739,47873,1571637888
2021/8/26,10:55:00,3.67,12.63,4.762,91,0.0337,31,491,16,88733,48868,1571637888
2021/8/26,10:56:00,3.67,12.63,4.77,92,0.0343,33.1,483,16,89728,49862,1571637888
2021/8/26,10:57:00,3.67,12.63,4.757,90,0.0333,38.8,440,14,90609,50744,1571637888
2021/8/26,10:58:00,3.67,12.63,4.723,86,0.0311,28.6,461,14,91471,51606,1571637888
2021/8/26,10:59:00,3.67,12.63,4.71,84,0.0303,24.7,455,13,92299,52433,1571637888
2021/8/26,11:00:00,3.67,12.63,4.692,82,0.0291,30.9,426,12,93043,0,1571691008
2021/8/26,11:01:00,3.67,12.63,4.666,79,0.0274,28.8,379,10,93668,624,1571691008
2021/8/26,11:02:00,3.67,12.63,4.653,77,0.0265,25.9,400,10,94306,1262,1571691008
2021/8/26,11:03:00,3.67,12.63,4.648,76,0.0262,31.3,442,11,95003,1959,1571691008
2021/8/26,11:04:00,3.67,12.63,4.656,77,0.0267,40,463,12,95747,2703,1571691008
2021/8/26,11:05:00,3.67,12.63,4.643,76,0.0259,36.4,433,11,96421,3377,1571691008
2021/8/26,11:06:00,3.67,12.63,4.632,74,0.0252,33.7,369,9,96980,3936,1571691008
2021/8/26,11:07:00,3.67,12.63,4.634,74,0.0253,35.8,397,10,97584,4540,1571691008
2021/8/26,11:08:00,3.67,12.63,4.623,73,0.0246,31.9,418,10,98202,5158,1571691008
2021/8/26,11:09:00,3.67,12.63,4.644,76,0.026,30.6,406,10,98836,5792,1571691008
2021/8/26,11:10:00,3.67,12.63,4.643,76,0.0259,26.5,465,12,99559,6516,1571691008
2021/8/26,11:11:00,3.67,12.63,4.663,78,0.0272,30.3,359,9,100146,7103,1571691008
2021/8/26,11:12:00,3.67,12.63,4.662,78,0.0271,35.6,399,10,100797,7753,1571691008
2021/8/26,11:13:00,3.67,12.63,4.662,78,0.0271,26.6,412,11,101469,8425,1571691008
2021/8/26,11:14:00,3.67,12.63,4.663,78,0.0272,26.4,430,11,102172,9128,1571691008
2021/8/26,11:15:00,3.67,12.63,4.662,78,0.0271,38,375,10,102784,9740,1571691008
2021/8/26,11:16:00,3.67,12.63,4.648,76,0.0262,37.8,433,11,103466,10423,1571691008
2021/8/26,11:17:00,3.67,12.63,4.655,77,0.0267,39.7,406,10,104118,11074,1571691008
2021/8/26,11:18:00,3.67,12.63,4.649,76,0.0263,29.9,375,9,104710,11666,1571691008
2021/8/26,11:19:00,3.67,12.63,4.664,78,0.0273,30.7,412,11,105385,12341,1571691008
2021/8/26,11:20:00,3.67,12.63,4.671,79,0.0277,41.1,459,12,106150,13106,1571691008
2021/8/26,11:21:00,3.67,12.63,4.675,80,0.028,35,419,11,106855,13811,1571691008
2021/8/26,11:22:00,3.67,12.63,4.671,79,0.0277,44.9,389,10,107503,14459,1571691008
2021/8/26,11:23:00,3.67,12.63,4.664,78,0.0273,34.8,368,10,108106,15062,1571691008
2021/8/26,11:24:00,3.67,12.63,4.659,78,0.0269,22.6,399,10,108752,15708,1571691008
2021/8/26,11:25:00,3.67,12.63,4.681,80,0.0284,47,420,11,109469,16425,1571691008
2021/8/26,11:26:00,3.67,12.63,4.66,78,0.027,35.8,394,10,110108,17064,1571691008
2021/8/26,11:27:00,3.67,12.63,4.66,78,0.027,46.6,407,11,110769,17725,1571691008
2021/8/26,11:28:00,3.67,12.63,4.66,78,0.027,28.7,311,8,111274,18230,1571691008
2021/8/26,11:29:00,3.67,12.63,4.639,75,0.0256,29.2,361,9,111830,18786,1571691008
2021/8/26,11:30:00,3.67,12.63,4.639,75,0.0256,48,382,9,112419,19375,1571691008
2021/8/26,11:31:00,3.67,12.63,4.634,74,0.0253,25.9,362,9,112970,19926,1571691008
2021/8/26,11:32:00,3.67,12.63,4.634,74,0.0253,28.8,383,9,113552,20508,1571691008
2021/8/26,11:33:00,3.67,12.63,4.613,72,0.0239,33.4,445,10,114193,21149,1571691008
2021/8/26,11:34:00,3.67,12.63,4.625,73,0.0247,39.7,398,9,114785,21741,1571691008
2021/8/26,11:35:00,3.67,12.63,4.633,74,0.0252,46.5,358,9,115328,22284,1571691008
2021/8/26,11:36:00,3.67,12.63,4.644,76,0.026,25.6,337,8,115854,22810,1571691008
2021/8/26,11:37:00,3.67,12.63,4.642,76,0.0258,22.4,381,9,116446,23402,1571691008
2021/8/26,11:38:00,3.67,12.63,4.653,77,0.0265,32.9,441,11,117149,24105,1571691008
2021/8/26,11:39:00,3.67,12.63,4.666,79,0.0274,25.7,358,9,117739,24695,1571691008
2021/8/26,11:40:00,3.67,12.63,4.681,80,0.0284,54,494,14,118581,25537,1571691008
2021/8/26,11:41:00,3.67,12.63,4.693,82,0.0292,42.2,414,12,119307,26263,1571691008
2021/8/26,11:42:00,3.67,12.63,4.71,84,0.0303,25.5,422,12,120074,27030,1571691008
2021/8/26,11:43:00,3.67,12.63,4.697,82,0.0294,32,409,12,120797,27753,1571691008
2021/8/26,11:44:00,3.67,12.63,4.705,83,0.0299,29.9,442,13,121592,28548,1571691008
2021/8/26,11:45:00,3.67,12.63,4.692,82,0.0291,41.8,382,11,122260,29216,1571691008
2021/8/26,11:46:00,3.67,12.63,4.687,81,0.0288,28.3,430,12,123004,29960,1571691008
2021/8/26,11:47:00,3.67,12.63,4.687,81,0.0288,32.2,460,13,123799,30755,1571691008
2021/8/26,11:48:00,3.67,12.63,4.666,79,0.0274,26.4,386,10,124434,31390,1571691008
2021/8/26,11:49:00,3.67,12.63,4.646,76,0.0261,26.3,328,8,124949,31905,1571691008
2021/8/26,11:50:00,3.67,12.63,4.639,75,0.0256,39.4,415,10,125588,32545,1571691008
2021/8/26,11:51:00,3.67,12.63,4.619,73,0.0243,46.8,362,8,126118,33074,1571691008
2021/8/26,11:52:00,3.67,12.63,4.62,73,0.0244,35.7,370,9,126661,33617,1571691008
2021/8/26,11:53:00,3.67,12.63,4.626,73,0.0248,33.6,348,8,127180,34136,1571691008
2021/8/26,11:54:00,3.67,12.63,4.637,75,0.0255,37.8,413,10,127813,34769,1571691008
2021/8/26,11:55:00,3.67,12.63,4.64,75,0.0257,29.9,411,10,128448,35404,1571691008
2021/8/26,11:56:00,3.67,12.63,4.648,76,0.0262,31.2,375,9,129039,35995,1571691008
2021/8/26,11:57:00,3.67,12.63,4.691,82,0.029,26.4,423,12,129777,36733,1571691008
2021/8/26,11:58:00,3.67,12.63,4.689,81,0.0289,42.4,422,12,130510,37466,1571691008
2021/8/26,11:59:00,3.67,12.63,4.666,79,0.0274,43.2,482,13,131303,38259,1571691008
2021/8/26,12:00:00,3.67,12.63,4.656,77,0.0267,31.4,394,10,131937,0,1571729920
2021/8/26,12:01:00,3.67,12.63,4.699,83,0.0295,36.5,456,13,132747,809,1571729920
2021/8/26,12:02:00,3.67,12.63,4.75,89,0.0329,37,435,14,133606,1668,1571729920
2021/8/26,12:03:00,3.67,12.63,4.792,94,0.0358,30.1,473,17,134624,2687,1571729920
2021/8/26,12:04:00,3.67,12.63,4.779,93,0.0349,30.9,393,13,135448,3511,1571729920
2021/8/26,12:05:00,3.67,12.63,4.753,90,0.0331,27.5,422,14,136287,4350,1571729920
2021/8/26,12:06:00,3.67,12.63,4.722,86,0.031,33.9,409,12,137050,5113,1571729920
2021/8/26,12:07:00,3.67,12.63,4.699,83,0.0295,20.9,363,10,137694,5757,1571729920
2021/8/26,12:08:00,3.67,12.63,4.663,78,0.0272,33.7,428,11,138394,6457,1571729920
2021/8/26,12:09:00,3.67,12.63,4.648,76,0.0262,26.4,308,8,138880,6942,1571729920
2021/8/26,12:10:00,3.67,12.63,4.62,73,0.0244,36.2,402,9,139469,7532,1571729920
2021/8/26,12:11:00,3.67,12.63,4.613,72,0.0239,23,415,10,140067,8130,1571729920
2021/8/26,12:12:00,3.67,12.63,4.608,71,0.0236,22.9,328,7,140533,8596,1571729920
2021/8/26,12:13:00,3.67,12.63,4.624,73,0.0247,27.6,415,10,141148,9211,1571729920
2021/8/26,12:14:00,3.67,12.63,4.611,72,0.0238,24.2,384,9,141698,9761,1571729920
2021/8/26,12:15:00,3.67,12.63,4.624,73,0.0247,27.4,419,10,142319,10382,1571729920
2021/8/26,12:16:00,3.67,12.63,4.608,71,0.0236,32.9,336,8,142797,10860,1571729920
2021/8/26,12:17:00,3.67,12.63,4.603,71,0.0233,35.6,344,8,143280,11342,1571729920
2021/8/26,12:18:00,3.67,12.63,4.606,71,0.0235,20.3,309,7,143717,11779,1571729920
2021/8/26,12:19:00,3.67,12.63,4.63,74,0.0251,55.7,423,10,144354,12416,1571729920
2021/8/26,12:20:00,3.67,12.63,4.625,73,0.0247,67.2,436,10,145002,13065,1571729920
2021/8/26,12:21:00,3.67,12.63,4.638,75,0.0256,63,428,11,145660,13723,1571729920
2021/8/26,12:22:00,3.67,12.63,4.63,74,0.0251,54.4,399,10,146261,14323,1571729920
2021/8/26,12:23:00,3.67,12.63,4.635,75,0.0254,46.3,474,12,146984,15047,1571729920
2021/8/26,12:24:00,3.67,12.63,4.661,78,0.0271,26,387,10,147614,15676,1571729920
2021/8/26,12:25:00,3.67,12.63,4.674,80,0.0279,28.8,478,13,148416,16478,1571729920
2021/8/26,12:26:00,3.67,12.63,4.679,80,0.0282,51.6,521,14,149300,17363,1571729920
2021/8/26,12:27:00,3.67,12.63,4.685,81,0.0286,35.9,464,13,150099,18161,1571729920
2021/8/26,12:28:00,3.67,12.63,4.69,82,0.029,41.8,423,12,150835,18897,1571729920
2021/8/26,12:29:00,3.67,12.63,4.687,81,0.0288,29.5,343,9,151428,19490,1571729920
2021/8/26,12:30:00,3.67,12.63,4.679,80,0.0282,29,374,10,152063,20125,1571729920
2021/8/26,12:31:00,3.67,12.63,4.684,81,0.0286,27.7,395,11,152741,20804,1571729920
2021/8/26,12:32:00,3.67,12.63,4.668,79,0.0275,21.8,385,10,153378,21440,1571729920
2021/8/26,12:33:00,3.67,12.63,4.639,75,0.0256,24.8,385,9,153971,22034,1571729920
2021/8/26,12:34:00,3.67,12.63,4.647,76,0.0262,29.2,320,8,154474,22537,1571729920
2021/8/26,12:35:00,3.67,12.63,4.639,75,0.0256,31.3,409,10,155105,23167,1571729920
2021/8/26,12:36:00,3.67,12.63,4.658,78,0.0269,34.2,356,9,155680,23742,1571729920
2021/8/26,12:37:00,3.67,12.63,4.671,79,0.0277,25.9,401,11,156348,24411,1571729920
2021/8/26,12:38:00,3.67,12.63,4.689,81,0.0289,29.7,422,12,157081,25143,1571729920
2021/8/26,12:39:00,3.67,12.63,4.662,78,0.0271,26.8,370,10,157684,25747,1571729920
2021/8/26,12:40:00,3.67,12.63,4.649,76,0.0263,37.2,375,9,158277,26340,1571729920
2021/8/26,12:41:00,3.67,12.63,4.637,75,0.0255,27.3,442,11,158955,27017,1571729920
2021/8/26,12:42:00,3.67,12.63,4.638,75,0.0256,29.4,389,10,159553,27615,1571729920
2021/8/26,12:43:00,3.67,12.63,4.618,72,0.0243,36.5,452,11,160212,28275,1571729920
2021/8/26,12:44:00,3.67,12.63,4.619,73,0.0243,33.7,382,9,160771,28834,1571729920
2021/8/26,12:45:00,3.67,12.63,4.625,73,0.0247,23.9,379,9,161334,29397,1571729920
2021/8/26,12:46:00,3.67,12.63,4.631,74,0.0251,28.5,397,10,161934,29997,1571729920
2021/8/26,12:47:00,3.67,12.63,4.645,76,0.026,31.4,402,10,162563,30626,1571729920
2021/8/26,12:48:00,3.67,12.63,4.687,81,0.0288,31.2,435,12,163315,31378,1571729920
2021/8/26,12:49:00,3.67,12.63,4.708,84,0.0301,34.5,414,12,164064,32127,1571729920
2021/8/26,12:50:00,3.67,12.63,4.737,88,0.032,42.4,449,14,164928,32991,1571729920
2021/8/26,12:51:00,3.67,12.63,4.729,87,0.0315,44.5,407,12,165699,33762,1571729920
2021/8/26,12:52:00,3.67,12.63,4.721,86,0.031,32,459,14,166553,34616,1571729920
2021/8/26,12:53:00,3.67,12.63,4.692,82,0.0291,23.8,428,12,167302,35364,1571729920
2021/8/26,12:54:00,3.67,12.63,4.664,78,0.0273,26.5,375,10,167916,35979,1571729920
2021/8/26,12:55:00,3.67,12.63,4.641,75,0.0258,22.4,396,10,168529,36592,1571729920
2021/8/26,12:56:00,3.67,12.63,4.639,75,0.0256,19.5,396,10,169140,37203,1571729920
2021/8/26,12:57:00,3.67,12.63,4.608,71,0.0236,22.7,417,9,169732,37795,1571729920
2021/8/26,12:58:00,3.67,12.63,4.595,70,0.0229,20.6,385,8,170262,38325,1571729920
2021/8/26,12:59:00,3.67,12.63,4.587,69,0.0224,23.6,314,7,170685,38748,1571729920
2021/8/26,13:00:00,3.67,12.63,4.592,69,0.0227,16.7,385,8,171211,0,1571769216
2021/8/26,13:01:00,3.67,12.63,4.605,71,0.0235,29.5,348,8,171702,490,1571769216
2021/8/26,13:02:00,3.67,12.63,4.619,73,0.0243,27.4,441,10,172347,1136,1571769216
2021/8/26,13:03:00,3.67,12.63,4.62,73,0.0244,26.6,376,9,172899,1687,1571769216
2021/8/26,13:04:00,3.67,12.63,4.629,74,0.025,21.7,384,9,173476,2264,1571769216
2021/8/26,13:05:00,3.67,12.63,4.638,75,0.0256,28.9,390,10,174075,2864,1571769216
2021/8/26,13:06:00,3.67,12.63,4.634,74,0.0253,28.1,375,9,174646,3434,1571769216
2021/8/26,13:07:00,3.67,12.63,4.643,76,0.0259,23.4,421,10,175301,4090,1571769216
2021/8/26,13:08:00,3.67,12.63,4.673,79,0.0279,31.4,420,11,176004,4793,1571769216
2021/8/26,13:09:00,3.67,12.63,4.682,81,0.0284,23.2,427,12,176734,5523,1571769216
2021/8/26,13:10:00,3.67,12.63,4.704,83,0.0299,26,366,11,177391,6180,1571769216
2021/8/26,13:11:00,3.67,12.63,4.705,83,0.0299,23.9,456,13,178212,7000,1571769216
2021/8/26,13:12:00,3.67,12.63,4.714,85,0.0305,37.6,443,13,179024,7813,1571769216
2021/8/26,13:13:00,3.67,12.63,4.724,86,0.0312,32.3,409,12,179790,8579,1571769216
2021/8/26,13:14:00,3.67,12.63,4.732,87,0.0317,39.5,465,14,180676,9464,1571769216
2021/8/26,13:15:00,3.67,12.63,4.706,84,0.03,30.3,386,11,181372,10160,1571769216
2021/8/26,13:16:00,3.67,12.63,4.706,84,0.03,23.8,339,10,181983,10772,1571769216
2021/8/26,13:17:00,3.67,12.63,4.693,82,0.0292,25.9,388,11,182663,11451,1571769216
2021/8/26,13:18:00,3.67,12.63,4.653,77,0.0265,28.8,488,13,183442,12230,1571769216
2021/8/26,13:19:00,3.67,12.63,4.645,76,0.026,28.5,429,11,184113,12901,1571769216
2021/8/26,13:20:00,3.67,12.63,4.636,75,0.0254,26.4,370,9,184679,13467,1571769216
2021/8/26,13:21:00,3.67,12.63,4.648,76,0.0262,27.6,365,9,185254,14043,1571769216
2021/8/26,13:22:00,3.67,12.63,4.639,75,0.0256,23.6,387,9,185851,14639,1571769216
2021/8/26,13:23:00,3.67,12.63,4.643,76,0.0259,23.6,304,7,186324,15112,1571769216
2021/8/26,13:24:00,3.67,12.63,4.642,76,0.0258,30.9,445,11,187015,15803,1571769216
2021/8/26,13:25:00,3.67,12.63,4.649,76,0.0263,35.7,355,9,187576,16364,1571769216
2021/8/26,13:26:00,3.67,12.63,4.651,77,0.0264,19.9,342,9,188119,16908,1571769216
2021/8/26,13:27:00,3.67,12.63,4.648,76,0.0262,29.2,446,11,188822,17611,1571769216
2021/8/26,13:28:00,3.67,12.63,4.64,75,0.0257,30.5,354,9,189369,18158,1571769216
2021/8/26,13:29:00,3.67,12.63,4.627,74,0.0249,36.5,397,9,189963,18751,1571769216
2021/8/26,13:30:00,3.67,12.63,4.627,74,0.0249,18.6,389,9,190544,19332,1571769216
2021/8/26,13:31:00,3.67,12.63,4.619,73,0.0243,27.3,402,9,191132,19920,1571769216
2021/8/26,13:32:00,3.67,12.63,4.616,72,0.0241,34.1,324,7,191602,20391,1571769216
2021/8/26,13:33:00,3.67,12.63,4.6,70,0.0232,37.2,356,8,192098,20887,1571769216
2021/8/26,13:34:00,3.67,12.63,4.597,70,0.023,29.7,407,9,192661,21449,1571769216
2021/8/26,13:35:00,3.67,12.63,4.599,70,0.0231,28.9,355,8,193154,21943,1571769216
2021/8/26,13:36:00,3.67,12.63,4.599,70,0.0231,24.7,398,9,193708,22496,1571769216
2021/8/26,13:37:00,3.67,12.63,4.586,68,0.0224,39.7,385,8,194225,23014,1571769216
2021/8/26,13:38:00,3.67,12.63,4.586,68,0.0224,41,351,7,194697,23486,1571769216
2021/8/26,13:39:00,3.67,12.63,4.573,67,0.0216,30,378,8,195188,23977,1571769216
2021/8/26,13:40:00,3.67,12.63,4.565,66,0.0211,23.4,357,7,195642,24431,1571769216
2021/8/26,13:41:00,3.67,12.63,4.558,65,0.0207,26.2,409,8,196152,24941,1571769216
2021/8/26,13:42:00,3.67,12.63,4.572,67,0.0215,26.3,371,8,196633,25421,1571769216
2021/8/26,13:43:00,3.67,12.63,4.578,67,0.0219,17.1,376,8,197128,25917,1571769216
2021/8/26,13:44:00,3.67,12.63,4.597,70,0.023,26.9,422,9,197712,26500,1571769216
2021/8/26,13:45:00,3.67,12.63,4.618,72,0.0243,23.9,343,8,198212,27001,1571769216
2021/8/26,13:46:00,3.67,12.63,4.626,73,0.0248,26.8,412,10,198826,27615,1571769216
2021/8/26,13:47:00,3.67,12.63,4.629,74,0.025,32,404,10,199433,28222,1571769216
2021/8/26,13:48:00,3.67,12.63,4.629,74,0.025,18.3,383,9,200009,28797,1571769216
2021/8/26,13:49:00,3.67,12.63,4.642,76,0.0258,23.6,396,10,200623,29412,1571769216
2021/8/26,13:50:00,3.67,12.63,4.642,76,0.0258,27.8,438,11,201304,30092,1571769216
2021/8/26,13:51:00,3.67,12.63,4.65,77,0.0264,22.7,349,9,201857,30645,1571769216
2021/8/26,13:52:00,3.67,12.63,4.661,78,0.0271,49.9,370,10,202459,31247,1571769216
2021/8/26,13:53:00,3.67,12.63,4.619,73,0.0243,18.2,439,10,203101,31889,1571769216
2021/8/26,13:54:00,3.67,12.63,4.565,66,0.0211,14.6,391,8,203598,32386,1571769216
2021/8/26,13:55:00,3.67,12.63,4.578,67,0.0219,18.9,404,8,204130,32918,1571769216
2021/8/26,13:56:00,3.67,12.63,4.59,69,0.0226,19.7,414,9,204692,33481,1571769216
2021/8/26,13:57:00,3.67,12.63,4.597,70,0.023,21.8,416,9,205268,34056,1571769216
2021/8/26,13:58:00,3.67,12.63,4.599,70,0.0231,33,321,7,205714,34502,1571769216
2021/8/26,13:59:00,3.67,12.63,4.606,71,0.0235,28,385,9,206258,35047,1571769216
2021/8/26,14:00:00,3.67,12.63,4.592,69,0.0227,21.7,437,9,206855,0,1571804800
2021/8/26,14:01:00,3.67,12.63,4.591,69,0.0227,41.3,399,9,207398,543,1571804800
2021/8/26,14:02:00,3.67,12.63,4.569,66,0.0214,29.3,386,8,207895,1039,1571804800
2021/8/26,14:03:00,3.67,12.63,4.584,68,0.0222,19,298,6,208293,1438,1571804800
2021/8/26,14:04:00,3.67,12.63,4.583,68,0.0222,20.3,290,6,208680,1825,1571804800
2021/8/26,14:05:00,3.67,12.63,4.577,67,0.0218,19.5,362,7,209156,2300,1571804800
2021/8/26,14:06:00,3.67,12.63,4.579,68,0.022,14.9,313,6,209569,2713,1571804800
2021/8/26,14:07:00,3.67,12.63,4.55,64,0.0203,34.8,326,6,209966,3111,1571804800
2021/8/26,14:08:00,3.67,12.63,4.555,65,0.0206,29.5,331,6,210376,3520,1571804800
2021/8/26,14:09:00,3.67,12.63,4.539,62,0.0196,34,431,8,210885,4029,1571804800
2021/8/26,14:10:00,3.67,12.63,4.554,64,0.0205,14,410,8,211390,4535,1571804800
2021/8/26,14:11:00,3.67,12.63,4.608,71,0.0236,15.3,333,7,211863,5008,1571804800
2021/8/26,14:12:00,3.67,12.63,4.644,76,0.026,23.3,385,10,212464,5609,1571804800
2021/8/26,14:13:00,3.67,12.63,4.657,77,0.0268,32.3,390,10,213093,6237,1571804800